Location: Ravensburg
(47.7866°N, 9.6124°E)
Time: 02:20:59
(UTC+02:00)

CAS-6 - Pass Details

Date: 12 March 2026
Orbit: 601 x 618 km, 97.8° (Epoch: 14 April)

Event Time Altitude Azimuth Distance (km) Brightness Sun altitude
Exits shadow 21:40:30 13° 3° (N) 1,743 ? -32.2°
Drops below altitude 10° 21:41:03 10° 0° (N) 1,956 ? -32.3°
Sets 21:43:19 0° 353° (N) 2,865 ? -32.6°
